Howell, MI

6:10 AM EDT on July 28, 2017 (GMT -0400)
Livingston County

Weather History for KOZW - February, 2013

Change the Weather History Date:

Tuesday, February 26, 2013

  Actual Average Record
Temperature  
Mean Temperature 32 °F -  
Max Temperature 35 °F 36 °F 50 °F (1998)
Min Temperature 28 °F 21 °F -2 °F (2015)
Degree Days  
Heating Degree Days 34    
Moisture  
Dew Point 25 °F    
Average Humidity 75    
Maximum Humidity 93    
Minimum Humidity 59    
Precipitation  
Precipitation 0.00 in - - ()
Sea Level Pressure  
Sea Level Pressure 29.79 in    
Wind  
Wind Speed 9 mph (ENE)    
Max Wind Speed 18 mph    
Max Gust Speed 26 mph    
Visibility 6 miles    
Events Rain , Snow    
Averages and records for this station are not official NWS values.
T = Trace of Precipitation, MM = Missing Value Source: NWS Daily Summary

Daily Weather History Graph

Daily Weather History Graph

Search for Another Location

Airport or City:

Trip Planner

Search our weather history database for the weather conditions in past years. The results will help you decide how hot, cold, wet, or windy it might be!

Date:

Astronomy

Feb. 26, 2013 Rise Set
Actual Time 7:15 AM EST 6:22 PM EST
Civil Twilight 6:47 AM EST 6:50 PM EST
Nautical Twilight 6:14 AM EST 7:23 PM EST
Astronomical Twilight 5:42 AM EST 7:55 PM EST
Moon 7:40 PM EST (2/26) 7:15 AM EST (2/26)
Length of Visible Light 12h 03m
Length of Day
11h 06m
Full, 99% of the Moon is Illuminated
Feb 26
Full
Mar 4
Last Quarter
Mar 11
New
Mar 19
First Quarter
Mar 27
Full

Hourly Weather History & Observations

Time (EST) Temp. Windchill Dew Point Humidity Pressure Visibility Wind Dir Wind Speed Gust Speed Precip Events Conditions
12:14 AM 30.0 °F 23.2 °F 20.1 °F 67% 30.09 in 10.0 mi ESE 6.9 mph - N/A   Clear
12:35 AM 29.3 °F 24.3 °F 19.4 °F 67% 30.08 in 10.0 mi East 4.6 mph - N/A   Clear
12:54 AM 28.9 °F 23.9 °F 19.4 °F 68% 30.09 in 10.0 mi East 4.6 mph - N/A   Clear
1:14 AM 28.4 °F 22.2 °F 18.9 °F 67% 30.08 in 10.0 mi ENE 5.8 mph - N/A   Clear
1:34 AM 28.4 °F 22.2 °F 18.9 °F 67% 30.07 in 10.0 mi East 5.8 mph - N/A   Clear
1:54 AM 28.4 °F 21.2 °F 18.7 °F 67% 30.06 in 10.0 mi East 6.9 mph - N/A   Clear
2:15 AM 28.6 °F 21.5 °F 19.0 °F 67% 30.07 in 10.0 mi East 6.9 mph - N/A   Clear
2:34 AM 29.1 °F 22.1 °F 19.2 °F 67% 30.08 in 10.0 mi East 6.9 mph - N/A   Clear
2:54 AM 29.3 °F 21.5 °F 19.2 °F 66% 30.05 in 10.0 mi East 8.1 mph - N/A   Clear
3:15 AM 29.3 °F 20.8 °F 19.4 °F 67% 30.05 in 10.0 mi East 9.2 mph - N/A   Clear
3:34 AM 29.7 °F 21.3 °F 19.4 °F 66% 30.05 in 10.0 mi East 9.2 mph - N/A   Clear
3:54 AM 29.3 °F 20.2 °F 19.4 °F 67% 30.02 in 10.0 mi ENE 10.4 mph - N/A   Clear
4:14 AM 29.3 °F 19.6 °F 19.4 °F 67% 30.00 in 10.0 mi East 11.5 mph - N/A   Clear
4:34 AM 29.3 °F 20.8 °F 19.2 °F 66% 30.00 in 10.0 mi ENE 9.2 mph - N/A   Clear
4:55 AM 29.3 °F 21.5 °F 19.4 °F 67% 30.00 in 10.0 mi ENE 8.1 mph - N/A   Clear
5:14 AM 29.7 °F 21.3 °F 19.4 °F 66% 29.98 in 10.0 mi ENE 9.2 mph 17.3 mph N/A   Clear
5:34 AM 29.5 °F 21.1 °F 19.4 °F 66% 29.96 in 10.0 mi ENE 9.2 mph - N/A   Clear
5:55 AM 29.7 °F 20.7 °F 19.9 °F 67% 29.96 in 10.0 mi ENE 10.4 mph - N/A   Clear
6:14 AM 29.8 °F 22.2 °F 19.9 °F 67% 29.97 in 10.0 mi ENE 8.1 mph - N/A   Clear
6:34 AM 29.7 °F 21.3 °F 20.1 °F 68% 29.95 in 10.0 mi NE 9.2 mph - N/A   Clear
6:55 AM 30.0 °F 22.4 °F 20.1 °F 67% 29.96 in 10.0 mi ENE 8.1 mph - N/A   Clear
7:14 AM 30.2 °F 21.9 °F 20.1 °F 66% 29.96 in 10.0 mi ENE 9.2 mph - N/A   Clear
7:34 AM 30.2 °F 21.3 °F 20.1 °F 66% 29.95 in 10.0 mi ENE 10.4 mph - N/A   Clear
7:55 AM 30.7 °F 21.4 °F 20.1 °F 65% 29.95 in 10.0 mi ENE 11.5 mph - N/A   Clear
8:14 AM 30.9 °F 21.7 °F 20.3 °F 65% 29.94 in 10.0 mi ENE 11.5 mph - N/A   Clear
8:34 AM 31.5 °F 22.3 °F 20.3 °F 63% 29.94 in 10.0 mi ENE 11.5 mph - N/A   Clear
8:55 AM 32.0 °F 22.1 °F 20.7 °F 63% 29.93 in 10.0 mi East 13.8 mph 19.6 mph N/A   Clear
9:14 AM 32.0 °F 23.0 °F 20.7 °F 63% 29.93 in 10.0 mi ENE 11.5 mph - N/A   Clear
9:35 AM 32.0 °F 22.1 °F 20.8 °F 63% 29.89 in 10.0 mi East 13.8 mph 18.4 mph N/A   Clear
9:54 AM 32.0 °F 23.0 °F 20.8 °F 63% 29.88 in 10.0 mi ENE 11.5 mph 20.7 mph N/A   Clear
10:14 AM 32.0 °F 21.2 °F 21.0 °F 64% 29.85 in 10.0 mi ENE 16.1 mph 21.9 mph N/A   Scattered Clouds
10:34 AM 32.4 °F 20.9 °F 21.0 °F 63% 29.84 in 10.0 mi East 18.4 mph 23.0 mph N/A   Clear
10:54 AM 33.8 °F 22.8 °F 21.7 °F 61% 29.83 in 10.0 mi ENE 18.4 mph 23.0 mph N/A   Clear
11:15 AM 34.5 °F 24.8 °F 21.9 °F 60% 29.82 in 10.0 mi East 15.0 mph 19.6 mph N/A   Clear
11:34 AM 34.7 °F 24.0 °F 21.7 °F 59% 29.81 in 10.0 mi East 18.4 mph 26.5 mph N/A   Clear
11:54 AM 34.9 °F 24.9 °F 21.9 °F 59% 29.80 in 10.0 mi ENE 16.1 mph 24.2 mph N/A   Clear
12:15 PM 35.1 °F 25.2 °F 21.9 °F 59% 29.80 in 10.0 mi East 16.1 mph 23.0 mph N/A   Scattered Clouds
12:34 PM 35.1 °F 24.8 °F 21.9 °F 59% 29.77 in 10.0 mi East 17.3 mph 23.0 mph N/A   Mostly Cloudy
12:54 PM 34.7 °F 24.7 °F 23.5 °F 64% 29.75 in 5.0 mi ENE 16.1 mph 23.0 mph N/A Rain Light Rain
1:15 PM 34.2 °F 24.0 °F 24.4 °F 68% 29.73 in 5.0 mi ENE 16.1 mph 20.7 mph N/A Rain Light Rain
1:34 PM 34.2 °F 25.2 °F 25.5 °F 71% 29.71 in 7.0 mi ENE 12.7 mph 19.6 mph N/A Rain Light Rain
1:54 PM 34.7 °F 24.7 °F 25.7 °F 70% 29.69 in 7.0 mi ENE 16.1 mph 20.7 mph N/A Rain Light Rain
2:15 PM 34.9 °F 24.9 °F 25.7 °F 69% 29.67 in 5.0 mi East 16.1 mph 24.2 mph N/A Rain Rain
2:34 PM 34.2 °F 24.4 °F 26.6 °F 74% 29.66 in 3.0 mi East 15.0 mph 23.0 mph N/A Rain Light Rain
2:54 PM 34.0 °F 24.6 °F 27.7 °F 78% 29.64 in 5.0 mi ENE 13.8 mph 19.6 mph N/A   Overcast
3:15 PM 33.8 °F 26.4 °F 28.4 °F 81% 29.65 in 3.0 mi East 9.2 mph 19.6 mph N/A   Overcast
3:34 PM 33.8 °F 25.8 °F 28.4 °F 81% 29.64 in 2.5 mi East 10.4 mph 17.3 mph N/A   Overcast
3:54 PM 33.8 °F 25.8 °F 29.1 °F 83% 29.64 in 2.5 mi East 10.4 mph - N/A   Overcast
4:14 PM 33.8 °F 25.3 °F 29.3 °F 84% 29.65 in 3.0 mi East 11.5 mph - N/A   Overcast
4:34 PM 33.8 °F 27.7 °F 29.5 °F 84% 29.64 in 2.5 mi East 6.9 mph - N/A   Overcast
4:55 PM 33.8 °F 26.4 °F 30.0 °F 86% 29.63 in 2.5 mi East 9.2 mph - N/A Snow Light Snow
5:14 PM 33.8 °F 26.4 °F 30.0 °F 86% 29.62 in 1.2 mi ENE 9.2 mph - N/A Snow Light Snow
5:34 PM 33.8 °F 25.8 °F 30.4 °F 87% 29.62 in 1.2 mi East 10.4 mph - N/A Snow Light Snow
5:55 PM 33.8 °F 25.8 °F 30.7 °F 89% 29.60 in 2.0 mi East 10.4 mph - N/A Snow Light Snow
6:14 PM 33.8 °F 26.4 °F 30.9 °F 89% 29.60 in 0.5 mi ENE 9.2 mph - N/A Snow Light Snow
6:35 PM 33.8 °F 26.4 °F 31.1 °F 90% 29.60 in 0.8 mi East 9.2 mph - N/A Snow Light Snow
6:54 PM 33.8 °F 25.3 °F 31.1 °F 90% 29.60 in 3.0 mi East 11.5 mph - N/A Snow Light Snow
7:15 PM 33.8 °F 26.4 °F 31.5 °F 91% 29.59 in 2.0 mi ENE 9.2 mph - N/A Snow Light Snow
7:34 PM 33.8 °F 26.4 °F 31.5 °F 91% 29.59 in 2.0 mi East 9.2 mph - N/A Snow Light Snow
7:54 PM 33.8 °F 25.8 °F 31.6 °F 92% 29.58 in 2.0 mi ENE 10.4 mph - N/A Snow Light Snow
8:15 PM 33.8 °F 26.4 °F 31.6 °F 92% 29.56 in 0.5 mi ENE 9.2 mph - N/A Snow Snow
8:34 PM 33.8 °F 26.4 °F 31.8 °F 92% 29.56 in 1.5 mi ENE 9.2 mph - N/A Snow Light Snow
8:54 PM 33.8 °F 26.4 °F 31.6 °F 92% 29.56 in 1.5 mi ENE 9.2 mph - N/A Snow Light Snow
9:15 PM 33.8 °F 26.4 °F 31.8 °F 92% 29.55 in 1.5 mi ENE 9.2 mph - N/A Snow Light Snow
9:34 PM 33.8 °F 26.4 °F 32.0 °F 93% 29.54 in 1.2 mi ENE 9.2 mph - N/A Snow Light Snow
9:54 PM 33.8 °F 27.0 °F 31.8 °F 92% 29.53 in 1.0 mi ENE 8.1 mph - N/A Snow Light Snow
10:15 PM 33.8 °F 26.4 °F 31.8 °F 92% 29.53 in 2.5 mi ENE 9.2 mph - N/A Snow Light Snow
10:34 PM 33.8 °F 27.0 °F 31.8 °F 92% 29.52 in 2.0 mi ENE 8.1 mph - N/A Snow Light Snow
10:54 PM 33.8 °F 27.0 °F 31.8 °F 92% 29.51 in 3.0 mi East 8.1 mph - N/A Snow Light Snow
11:14 PM 33.8 °F 27.0 °F 31.8 °F 92% 29.50 in 2.5 mi ENE 8.1 mph - N/A Snow Light Snow
11:34 PM 33.8 °F 27.7 °F 32.0 °F 93% 29.50 in 3.0 mi East 6.9 mph - N/A Snow Light Snow
11:55 PM 33.8 °F 27.7 °F 32.0 °F 93% 29.49 in 0.8 mi East 6.9 mph - N/A Snow Light Snow